| time (UTC) | temp F | wind direction | speed knots | gust knots | rain 1hr in | rain 24hr in | rain mn in | humidity % | barometer mb |
| 20260505163053 | 75 | 216 | 1.7 | 7.0 | 0.00 | 0.00 | 0.00 | 45 | 1011.7 |
| 20260505161610 | 76 | 335 | 1.7 | 5.2 | 0.00 | 0.00 | 0.00 | 47 | 1011.8 |
| 20260505153101 | 74 | 44 | 2.6 | 7.0 | 0.00 | 0.00 | 0.00 | 47 | 1012.0 |
| 20260505151604 | 74 | 253 | 0.9 | 7.0 | 0.00 | 0.00 | 0.00 | 47 | 1012.0 |
| 20260505130110 | 66 | 67 | 0.9 | 5.2 | 0.00 | 0.00 | 0.00 | 61 | 1012.1 |
| 20260505124611 | 65 | 360 | 0.9 | 3.5 | 0.00 | 0.00 | 0.00 | 59 | 1012.1 |
| 20260505123108 | 65 | 175 | 0.9 | 3.5 | 0.00 | 0.00 | 0.00 | 59 | 1012.0 |
| 20260505121620 | 65 | 0 | 0.9 | 4.3 | 0.00 | 0.00 | 0.00 | 59 | 1011.8 |
| 20260505120059 | 63 | 0 | 0.9 | 4.3 | 0.00 | 0.00 | 0.00 | 64 | 1011.7 |
| 20260505114555 | 61 | 360 | 0.9 | 2.6 | 0.00 | 0.00 | 0.00 | 66 | 1011.7 |
| 20260505113101 | 60 | 0 | 0.0 | 2.6 | 0.00 | 0.00 | 0.00 | 69 | 1011.7 |
| 20260505111556 | 60 | 360 | 0.0 | 1.7 | 0.00 | 0.00 | 0.00 | 68 | 1011.6 |
| 20260505101557 | 61 | 0 | 0.0 | 1.7 | 0.00 | 0.00 | 0.00 | 64 | 1011.3 |
| 20260505100101 | 61 | 0 | 0.0 | 3.5 | 0.00 | 0.00 | 0.00 | 64 | 1011.0 |
| 20260505094556 | 61 | 0 | 0.0 | 4.3 | 0.00 | 0.00 | 0.00 | 64 | 1010.8 |
| 20260505093058 | 61 | 0 | 0.0 | 1.7 | 0.00 | 0.00 | 0.00 | 64 | 1010.5 |
| 20260505091600 | 61 | 0 | 0.0 | 3.5 | 0.00 | 0.00 | 0.00 | 65 | 1010.5 |
| 20260505090108 | 62 | 360 | 0.0 | 3.5 | 0.00 | 0.00 | 0.00 | 64 | 1010.3 |
| 20260505084557 | 62 | 360 | 0.0 | 7.8 | 0.00 | 0.00 | 0.00 | 64 | 1010.2 |
| 20260505083102 | 62 | 0 | 0.9 | 5.2 | 0.00 | 0.00 | 0.00 | 63 | 1010.3 |
| 20260505081557 | 61 | 360 | 0.0 | 4.3 | 0.00 | 0.00 | 0.00 | 64 | 1010.1 |
| 20260505080057 | 61 | 0 | 0.0 | 2.6 | 0.00 | 0.00 | 0.00 | 64 | 1010.2 |
| 20260505074559 | 61 | 0 | 0.0 | 4.3 | 0.00 | 0.00 | 0.00 | 65 | 1010.1 |
| 20260505073103 | 60 | 360 | 0.0 | 1.7 | 0.00 | 0.00 | 0.00 | 65 | 1010.0 |
| 20260505071557 | 59 | 360 | 0.0 | 2.6 | 0.00 | 0.00 | 0.00 | 67 | 1010.0 |
| 20260505070055 | 58 | 0 | 0.0 | 1.7 | 0.00 | 0.00 | 0.00 | 70 | 1010.0 |
| 20260505064551 | 58 | 0 | 0.0 | 1.7 | 0.00 | 0.00 | 0.00 | 71 | 1010.1 |
| 20260505063053 | 57 | 0 | 0.0 | 0.9 | 0.00 | 0.00 | 0.00 | 73 | 1010.1 |
| 20260505061555 | 58 | 0 | 0.0 | 1.7 | 0.00 | 0.00 | 0.00 | 76 | 1010.1 |
| 20260505060055 | 58 | 360 | 0.0 | 0.9 | 0.00 | 0.00 | 0.00 | 75 | 1010.1 |
| 20260505054553 | 58 | 360 | 0.0 | 1.7 | 0.00 | 0.00 | 0.00 | 75 | 1010.1 |
| 20260505053107 | 58 | 0 | 0.0 | 0.9 | 0.00 | 0.00 | 0.00 | 74 | 1010.2 |
| 20260505051555 | 58 | 0 | 0.0 | 0.9 | 0.00 | 0.00 | 0.00 | 74 | 1010.1 |
| 20260505041551 | 56 | 0 | 0.0 | 0.9 | 0.00 | 0.00 | 0.00 | 81 | 1009.6 |
| 20260505040056 | 56 | 0 | 0.0 | 0.9 | 0.00 | 0.00 | 0.00 | 83 | 1009.5 |
| 20260505034552 | 55 | 0 | 0.0 | 0.9 | 0.00 | 0.00 | 0.00 | 84 | 1009.4 |
| 20260505033111 | 56 | 0 | 0.0 | 0.9 | 0.00 | 0.00 | 0.00 | 85 | 1009.4 |
| 20260505031553 | 56 | 0 | 0.0 | 0.9 | 0.00 | 0.00 | 0.00 | 83 | 1009.4 |
| 20260505030055 | 56 | 0 | 0.0 | 0.9 | 0.00 | 0.00 | 0.00 | 83 | 1009.5 |
| 20260505024555 | 57 | 0 | 0.0 | 0.9 | 0.00 | 0.00 | 0.00 | 82 | 1009.4 |
| 20260505023105 | 57 | 0 | 0.0 | 0.9 | 0.00 | 0.00 | 0.00 | 81 | 1009.4 |
| 20260505021555 | 58 | 0 | 0.0 | 0.9 | 0.00 | 0.00 | 0.00 | 80 | 1009.4 |
| 20260505020057 | 58 | 0 | 0.0 | 0.9 | 0.00 | 0.00 | 0.00 | 79 | 1009.3 |
| 20260505014554 | 59 | 0 | 0.0 | 0.9 | 0.00 | 0.00 | 0.00 | 76 | 1009.3 |
| 20260505013054 | 60 | 360 | 0.0 | 0.9 | 0.00 | 0.00 | 0.00 | 74 | 1009.2 |
| 20260505011600 | 61 | 0 | 0.0 | 0.9 | 0.00 | 0.00 | 0.00 | 72 | 1009.0 |
| 20260505010057 | 62 | 0 | 0.0 | 0.9 | 0.00 | 0.00 | 0.00 | 70 | 1009.1 |
| 20260505004555 | 63 | 0 | 0.0 | 0.9 | 0.00 | 0.00 | 0.00 | 69 | 1009.0 |
| 20260505003053 | 65 | 0 | 0.0 | 0.9 | 0.00 | 0.00 | 0.00 | 66 | 1008.9 |
| 20260505001554 | 66 | 0 | 0.0 | 1.7 | 0.00 | 0.00 | 0.00 | 63 | 1009.2 |
| 20260505000059 | 68 | 0 | 0.0 | 0.9 | 0.00 | 0.00 | 0.00 | 60 | 1009.2 |
| 20260504234614 | 68 | 0 | 0.0 | 1.7 | 0.00 | 0.00 | 0.00 | 59 | 1009.1 |
| 20260504233057 | 70 | 0 | 0.0 | 0.9 | 0.00 | 0.00 | 0.00 | 55 | 1009.2 |
| 20260504231605 | 71 | 0 | 0.0 | 0.9 | 0.00 | 0.00 | 0.00 | 54 | 1009.5 |
| 20260504230056 | 72 | 0 | 0.0 | 0.9 | 0.00 | 0.00 | 0.00 | 51 | 1009.7 |
| 20260504224606 | 72 | 93 | 0.0 | 2.6 | 0.00 | 0.00 | 0.00 | 52 | 1009.7 |
| 20260504223052 | 72 | 0 | 0.9 | 2.6 | 0.00 | 0.00 | 0.00 | 51 | 1009.9 |
| 20260504221603 | 71 | 0 | 0.9 | 3.5 | 0.00 | 0.00 | 0.00 | 51 | 1009.9 |
| 20260504220057 | 71 | 197 | 0.9 | 5.2 | 0.00 | 0.00 | 0.00 | 50 | 1009.8 |
| 20260504214555 | 71 | 223 | 0.9 | 7.0 | 0.00 | 0.00 | 0.00 | 50 | 1010.0 |
| 20260504213102 | 71 | 294 | 0.9 | 8.7 | 0.00 | 0.00 | 0.00 | 50 | 1010.0 |
| 20260504211554 | 70 | 11 | 1.7 | 5.2 | 0.00 | 0.00 | 0.00 | 52 | 1009.9 |
| 20260504210104 | 69 | 360 | 0.9 | 4.3 | 0.00 | 0.00 | 0.00 | 53 | 1009.9 |
| 20260504204635 | 70 | 360 | 0.9 | 3.5 | 0.00 | 0.00 | 0.00 | 52 | 1009.6 |
| 20260504203057 | 71 | 51 | 0.9 | 6.1 | 0.00 | 0.00 | 0.00 | 48 | 1009.6 |
| 20260504201556 | 72 | 0 | 1.7 | 7.0 | 0.00 | 0.00 | 0.00 | 47 | 1009.6 |
| 20260504200056 | 71 | 0 | 0.9 | 4.3 | 0.00 | 0.00 | 0.00 | 48 | 1009.8 |
| 20260504194557 | 72 | 192 | 0.9 | 4.3 | 0.00 | 0.00 | 0.00 | 50 | 1009.8 |
| 20260504193052 | 71 | 262 | 0.9 | 3.5 | 0.00 | 0.00 | 0.00 | 50 | 1010.1 |
| 20260504191557 | 71 | 175 | 1.7 | 5.2 | 0.00 | 0.00 | 0.00 | 48 | 1010.3 |
| 20260504190059 | 72 | 165 | 1.7 | 6.1 | 0.00 | 0.00 | 0.00 | 50 | 1010.4 |
| 20260504184604 | 71 | 177 | 2.6 | 7.8 | 0.00 | 0.00 | 0.00 | 50 | 1010.7 |
| 20260504183108 | 71 | 179 | 1.7 | 5.2 | 0.00 | 0.00 | 0.00 | 48 | 1010.9 |
| 20260504181555 | 70 | 229 | 1.7 | 5.2 | 0.00 | 0.00 | 0.00 | 50 | 1010.8 |
| 20260504180052 | 71 | 228 | 0.9 | 7.0 | 0.00 | 0.00 | 0.00 | 52 | 1010.7 |
| 20260504174556 | 70 | 188 | 1.7 | 7.0 | 0.00 | 0.00 | 0.00 | 52 | 1011.1 |
| 20260504173056 | 69 | 116 | 2.6 | 7.0 | 0.00 | 0.00 | 0.00 | 52 | 1011.3 |
| 20260504171554 | 68 | 63 | 0.9 | 6.1 | 0.00 | 0.00 | 0.00 | 54 | 1011.5 |